Total_Precipitation_Accumulation
2.88 3.14 3.07 2.88 2.89 2.91 3.17 3.53 3.77 3.57 3.28 2.97 2.64 2.40 2.42 2.50 2.64 2.30 2.16 2.39 2.20 1.97 1.83 1.79 1.85 1.85 1.82 1.83 1.85 1.93 1.99 2.10 2.26 2.50 2.87 3.33 3.73 4.17
2.85 3.01 2.97 2.84 2.88 2.78 2.91 3.24 3.57 3.67 3.31 2.84 2.66 2.50 2.44 2.19 2.44 2.11 2.03 2.22 2.03 1.92 1.86 1.74 1.68 1.74 1.73 1.65 1.56 1.54 1.56 1.60 1.67 1.76 1.84 2.02 2.26 2.62
2.69 2.85 2.92 3.06 3.10 2.96 2.96 3.01 3.20 3.45 3.21 2.84 2.73 2.68 2.52 2.27 2.21 2.06 1.91 1.87 1.82 1.87 1.75 1.67 1.56 1.52 1.58 1.54 1.51 1.44 1.38 1.37 1.43 1.47 1.51 1.59 1.65 1.79
2.91 3.06 3.05 3.07 3.03 2.93 2.99 2.99 3.03 3.31 3.25 2.96 2.92 2.86 2.69 2.42 2.34 2.24 1.94 1.78 1.80 2.07 1.93 1.71 1.64 1.64 1.59 1.47 1.37 1.33 1.34 1.33 1.33 1.34 1.36 1.42 1.45 1.52
2.92 2.97 2.93 3.04 2.94 2.94 2.82 2.80 2.86 3.03 3.34 3.14 3.03 3.06 2.96 2.67 2.55 2.35 2.16 2.13 1.78 1.89 1.97 1.83 1.74 1.71 1.63 1.50 1.42 1.36 1.27 1.22 1.19 1.23 1.27 1.34 1.35 1.34
2.74 2.84 2.90 2.91 2.94 3.08 2.94 2.91 3.06 3.19 3.33 3.28 3.17 3.25 3.26 3.08 2.86 2.62 2.44 2.26 1.96 1.68 1.81 1.82 1.78 1.72 1.65 1.58 1.49 1.42 1.37 1.29 1.22 1.20 1.20 1.23 1.28 1.35
2.54 2.53 2.62 2.85 2.91 2.95 2.73 2.89 3.11 3.13 3.10 3.12 3.10 3.24 3.29 3.22 2.96 2.69 2.52 2.45 2.21 1.94 1.84 1.62 1.62 1.63 1.65 1.69 1.69 1.64 1.53 1.46 1.41 1.32 1.26 1.26 1.29 1.38
2.46 2.40 2.31 2.33 2.41 2.54 2.57 2.60 2.75 2.88 2.98 3.03 3.00 3.08 3.12 3.12 3.08 2.91 2.72 2.55 2.38 2.27 2.31 2.12 1.89 1.87 1.72 1.60 1.73 1.70 1.61 1.53 1.50 1.48 1.42 1.38 1.38 1.46
2.10 2.09 1.89 1.80 2.15 2.20 2.37 2.34 2.23 2.28 2.39 2.63 2.75 2.73 2.92 3.04 3.20 3.02 2.89 2.69 2.44 2.39 2.53 2.39 2.17 2.02 1.77 1.70 1.89 1.72 1.66 1.60 1.53 1.50 1.48 1.44 1.38 1.38
1.86 1.83 1.87 1.86 1.91 2.10 2.19 2.15 2.05 2.01 2.07 2.08 2.19 2.42 2.66 2.97 3.14 3.13 3.19 2.98 2.63 2.42 2.50 2.45 2.19 2.09 1.90 1.85 1.93 1.78 1.63 1.57 1.54 1.58 1.66 1.65 1.50 1.46
1.96 2.00 2.03 1.87 1.94 1.98 2.02 1.99 1.94 1.97 2.03 2.05 2.03 2.18 2.40 2.60 2.91 3.02 3.05 2.98 2.63 2.45 2.43 2.43 2.24 2.23 2.14 1.96 1.82 1.84 1.56 1.38 1.32 1.36 1.50 1.76 1.88 1.76
2.32 2.18 2.07 1.87 1.80 1.75 1.76 1.81 1.73 1.73 1.89 1.97 1.96 2.00 2.11 2.32 2.63 2.67 2.72 2.87 2.64 2.40 2.21 2.33 2.30 2.37 2.38 2.06 1.77 1.67 1.59 1.50 1.42 1.37 1.49 1.82 2.03 1.84
2.41 2.28 2.12 1.95 1.73 1.67 1.62 1.60 1.65 1.76 1.87 1.94 2.07 2.19 2.31 2.42 2.45 2.47 2.56 2.64 2.66 2.33 1.99 2.20 2.29 2.28 2.24 2.02 1.82 1.68 1.62 1.55 1.49 1.48 1.55 1.80 2.05 1.98
2.53 2.40 2.25 2.10 1.83 1.73 1.58 1.55 1.64 1.62 1.70 1.84 1.93 2.06 2.17 2.30 2.45 2.57 2.62 2.60 2.53 2.40 2.30 2.33 2.31 2.31 2.28 2.09 1.88 1.72 1.73 1.71 1.71 1.69 1.63 1.83 1.91 2.16
2.52 2.63 2.41 2.23 2.01 1.84 1.81 1.79 1.68 1.56 1.70 1.84 1.80 1.84 1.95 2.13 2.46 2.71 2.83 2.86 2.66 2.38 2.27 2.24 2.23 2.33 2.40 2.19 1.92 1.75 1.76 1.81 1.80 1.83 1.84 1.85 1.91 2.07
2.39 2.50 2.39 2.22 1.99 1.84 1.87 1.82 1.68 1.65 1.76 1.83 1.85 1.88 2.01 2.14 2.33 2.52 2.75 2.84 2.72 2.30 2.14 2.16 2.23 2.39 2.32 2.17 2.06 1.86 1.76 1.78 1.77 1.83 1.95 2.02 2.14 2.20
2.36 2.42 2.36 2.24 2.08 1.94 1.87 1.89 1.90 1.86 1.77 1.77 1.92 1.97 2.01 1.99 2.05 2.24 2.53 2.66 2.52 2.13 1.97 2.06 2.26 2.44 2.44 2.44 2.33 2.05 1.94 1.82 1.81 2.00 2.13 2.09 2.11 2.11
2.08 2.24 2.29 2.20 2.10 2.03 1.99 1.99 1.96 1.89 1.80 1.78 1.83 1.88 1.91 1.93 1.98 2.09 2.26 2.45 2.42 2.22 2.07 2.04 2.29 2.53 2.51 2.33 2.16 2.08 1.99 1.93 1.96 2.16 2.20 2.14 2.06 2.02
1.77 1.95 2.01 2.01 2.02 2.05 2.04 1.97 1.89 1.85 1.89 1.84 1.78 1.82 1.89 1.93 1.99 2.09 2.14 2.27 2.37 2.39 2.28 2.21 2.31 2.43 2.34 2.00 1.75 1.74 1.85 1.91 2.07 2.16 2.14 2.08 1.94 1.93
1.68 1.79 1.82 1.85 1.92 2.00 2.04 2.00 1.92 1.91 1.94 1.90 1.87 1.91 2.03 2.08 2.06 2.07 2.13 2.17 2.28 2.38 2.42 2.30 2.19 2.19 2.12 2.00 1.90 1.74 1.71 1.82 1.94 2.01 2.03 2.02 1.94 2.03
1.68 1.77 1.84 1.85 1.89 1.98 2.03 2.05 2.05 2.05 2.04 2.05 2.04 2.04 2.14 2.22 2.12 2.05 2.13 2.30 2.33 2.37 2.34 2.19 2.12 2.35 2.49 2.60 2.31 1.87 1.77 1.81 1.87 1.95 2.04 2.14 2.14 2.20
1.89 1.89 1.95 1.98 1.97 2.00 2.03 2.03 2.07 2.10 2.08 2.08 2.12 2.16 2.21 2.25 2.15 2.13 2.15 2.27 2.27 2.26 2.28 2.35 2.55 2.73 2.75 2.73 2.42 2.11 1.98 1.89 1.88 1.90 1.92 1.95 1.93 1.94
1.89 1.91 1.95 1.90 1.87 1.94 1.97 1.97 2.06 2.10 2.10 2.11 2.19 2.23 2.21 2.21 2.16 2.17 2.19 2.23 2.31 2.41 2.54 2.63 2.74 2.75 2.60 2.52 2.38 2.23 2.15 2.13 2.02 1.93 1.86 1.80 1.69 1.61